DW8548 Weather Reports


time (UTC)temp
F
wind
direction
speed
knots
gust
knots
rain 1hr
in
rain 24hr
in
rain mn
in
humidity
%
barometer
mb
20260905000105 58 5 0.0 1.7 0.00 0.00 0.00 80 1018.6
20260904234608 57 0 0.0 0.9 0.00 0.00 0.00 80 1018.5
20260904233103 57 29 0.0 3.5 0.00 0.00 0.00 78 1018.4
20260904231604 57 0 0.0 0.9 0.00 0.00 0.00 78 1018.4
20260904230106 57 0 0.0 0.9 0.00 0.00 0.00 75 1018.2
20260904224602 56 0 0.0 0.9 0.00 0.00 0.00 75 1018.2
20260904223101 56 0 0.0 0.9 0.00 0.00 0.00 75 1018.2
20260904221608 56 0 0.0 0.9 0.00 0.00 0.00 75 1018.4
20260904220111 56 0 0.0 0.9 0.00 0.00 0.00 76 1018.3
20260904214605 56 0 0.0 1.7 0.00 0.00 0.00 76 1018.2
20260904213104 56 0 0.0 1.7 0.00 0.00 0.00 75 1018.1
20260904211608 56 0 0.0 0.9 0.00 0.00 0.00 77 1017.9
20260904210111 56 0 0.0 0.0 0.00 0.00 0.00 78 1018.1
20260904204606 56 0 0.0 0.0 0.00 0.00 0.00 78 1018.2
20260904203109 56 0 0.0 0.0 0.00 0.00 0.00 77 1018.0
20260904201606 56 0 0.0 0.0 0.00 0.00 0.00 75 1018.1
20260904200134 56 0 0.0 0.0 0.00 0.00 0.00 73 1018.1
20260904194635 56 0 0.0 0.0 0.00 0.00 0.00 72 1018.3
20260904193119 57 0 0.0 0.0 0.00 0.00 0.00 72 1018.5
20260904191623 57 0 0.0 0.0 0.00 0.00 0.00 72 1018.7
20260904190104 57 0 0.0 0.0 0.00 0.00 0.00 72 1018.7
20260904184610 57 0 0.0 0.0 0.00 0.00 0.00 71 1018.9
20260904183101 57 0 0.0 0.9 0.00 0.00 0.00 69 1019.2
20260904181601 58 43 0.0 1.7 0.00 0.00 0.00 67 1019.3
20260904180103 58 0 0.0 2.6 0.00 0.00 0.00 65 1019.6
20260904174606 57 340 0.0 0.9 0.00 0.00 0.00 68 1019.7
20260904173109 58 0 0.0 0.0 0.00 0.00 0.00 68 1019.9
20260904171601 58 319 0.0 3.5 0.00 0.00 0.00 66 1019.9
20260904170059 58 0 0.0 2.6 0.00 0.00 0.00 66 1020.1
20260904164603 57 0 0.0 0.9 0.00 0.02 0.00 68 1020.2
20260904163058 58 0 0.0 1.7 0.00 0.02 0.00 67 1020.3
20260904161601 58 0 0.0 1.7 0.00 0.02 0.00 66 1020.4
20260904160103 58 0 0.0 1.7 0.00 0.02 0.00 66 1020.4
20260904154620 58 257 0.0 3.5 0.00 0.03 0.02 66 1020.6
20260904153103 58 0 0.0 1.7 0.00 0.03 0.02 66 1020.6
20260904151611 58 0 0.9 3.5 0.00 0.03 0.02 65 1020.7
20260904150106 58 0 0.0 0.9 0.00 0.03 0.02 67 1021.0
20260904144604 59 0 0.0 3.5 0.00 0.03 0.02 66 1021.1
20260904143101 59 262 0.9 2.6 0.00 0.03 0.02 67 1021.3
20260904141623 59 253 0.0 1.7 0.00 0.03 0.02 67 1021.3
20260904140109 58 0 0.0 1.7 0.00 0.03 0.02 68 1021.3
20260904134611 59 258 0.0 2.6 0.00 0.03 0.02 67 1021.3
20260904133116 59 0 0.0 1.7 0.00 0.03 0.02 66 1021.3
20260904131615 59 255 0.0 4.3 0.00 0.03 0.02 64 1021.3
20260904130104 59 0 0.0 2.6 0.00 0.03 0.02 65 1021.4
20260904124600 59 265 0.0 3.5 0.00 0.03 0.02 64 1021.4
20260904123123 59 263 0.9 6.1 0.00 0.03 0.02 66 1021.6
20260904121558 59 254 0.0 3.5 0.00 0.03 0.02 67 1021.4
20260904114602 59 260 0.0 1.7 0.00 0.03 0.02 68 1021.4
20260904113108 59 0 0.0 1.7 0.00 0.03 0.02 69 1021.2
20260904111558 59 0 0.0 0.0 0.00 0.03 0.02 72 1021.0
20260904110100 59 329 0.0 0.9 0.00 0.03 0.02 72 1020.9
20260904104601 59 254 0.0 0.9 0.00 0.03 0.02 72 1020.8
20260904103106 59 0 0.0 0.9 0.00 0.03 0.02 72 1020.7
20260904101603 59 0 0.0 3.5 0.00 0.03 0.02 71 1020.6
20260904100108 59 0 0.0 3.5 0.00 0.03 0.02 69 1020.5
20260904094602 60 259 0.0 3.5 0.00 0.03 0.02 68 1020.4
20260904093107 60 261 0.9 3.5 0.00 0.03 0.02 69 1020.3
20260904091601 61 245 0.9 3.5 0.00 0.03 0.02 68 1020.0
20260904090104 61 222 0.9 4.3 0.00 0.03 0.02 68 1019.8
20260904084603 62 275 0.9 3.5 0.00 0.03 0.02 64 1019.7
20260904083104 62 256 0.9 3.5 0.00 0.03 0.02 63 1019.5
20260904081602 62 207 0.9 4.3 0.00 0.03 0.02 63 1019.5
20260904080107 62 240 1.7 7.0 0.00 0.03 0.02 59 1019.3
20260904074604 63 82 1.7 6.1 0.00 0.03 0.02 58 1019.3
20260904073104 63 254 1.7 6.1 0.00 0.03 0.02 59 1019.0
20260904071601 63 251 2.6 7.0 0.00 0.03 0.02 57 1018.9
20260904064620 63 171 2.6 5.2 0.00 0.03 0.02 59 1018.6
20260904063102 63 227 1.7 7.8 0.00 0.03 0.02 59 1018.5
20260904061600 63 254 1.7 7.8 0.00 0.03 0.02 59 1018.5
20260904054603 63 262 0.9 7.8 0.00 0.03 0.02 63 1018.4
20260904053110 63 149 0.9 7.0 0.00 0.03 0.02 64 1018.4
20260904051609 65 263 0.9 8.7 0.00 0.03 0.02 64 1018.4
20260904050146 63 238 0.9 6.1 0.00 0.03 0.02 68 1018.5
20260904044602 63 229 2.6 8.7 0.00 0.05 0.02 71 1018.8
20260904043104 62 219 2.6 9.6 0.00 0.05 0.02 70 1018.6
20260904041612 64 221 1.7 10.4 0.00 0.05 0.02 68 1018.5
20260904040105 64 350 1.7 6.1 0.00 0.05 0.02 71 1018.6
20260904034614 63 242 1.7 9.6 0.00 0.06 0.02 72 1018.5
20260904033105 63 240 4.3 10.4 0.00 0.06 0.02 69 1018.6
20260904031604 65 0 2.6 10.4 0.00 0.06 0.02 60 1018.3
20260904030103 65 216 3.5 7.8 0.00 0.06 0.02 52 1018.1
20260904024607 65 290 3.5 8.7 0.00 0.06 0.02 55 1017.9
20260904023100 64 248 5.2 8.7 0.00 0.06 0.02 55 1017.9
20260904021559 63 265 1.7 10.4 0.00 0.06 0.02 59 1018.0
20260904014634 64 266 3.5 10.4 0.00 0.06 0.02 56 1017.9
20260904013103 63 292 2.6 11.3 0.00 0.06 0.02 56 1017.9
20260904011609 62 259 3.5 10.4 0.00 0.06 0.02 60 1017.6
20260904004604 62 248 3.5 8.7 0.00 0.06 0.02 64 1017.1
20260904003103 62 262 1.7 8.7 0.00 0.06 0.02 65 1016.5
20260904001559 61 255 3.5 8.7 0.00 0.06 0.02 68 1016.2